Regional Weather Roundup
Issued by NWS

Home | Current Version | Previous Version | Graphics & Text | Print | Product List | Glossary On
Versions: 1 2 3 4 5 6 7 8 9 10 11 12 13 14 15 16 17 18 19 20 21 22 23 24 25 26 27 28 29 30 31 32 33 34 35 36 37 38 39 40 41 42 43 44 45 46 47 48 49 50
000
ASUS43 KIND 310759
RWRIN

WEATHER ROUNDUP FOR INDIANA
NATIONAL WEATHER SERVICE INDIANAPOLIS IN
400 AM EDT WED AUG 31 2016

NOTE: "FAIR" INDICATES FEW OR NO CLOUDS BELOW 12,000 FEET WITH NO
SIGNIFICANT WEATHER AND/OR OBSTRUCTIONS TO VISIBILITY.

* - STATION DOES NOT REPORT WEATHER SUCH AS PRECIPITATION OR FOG.

+ - STATION NOT QUALITY CONTROLLED BY THE NATIONAL WEATHER SERVICE.
    USE DATA WITH CAUTION...ESPECIALLY DEWPOINT AND RELATIVE
    HUMIDITY OBSERVATIONS.

INZ001>003-010>013-019-020-310900-
NORTHWEST INDIANA

CITY           SKY/WX    TMP DP  RH WIND       PRES   REMARKS
KNOX *+        CLOUDY    70  61  73 CALM      30.03S VSB 1/2
MONTICELLO +   CLOUDY    70  66  88 SW3       30.02S
RENSSELAER +   CLOUDY    72  70  94 CALM      30.03S FOG

$$

LMZ046-743>745-310900-
SOUTHERN LAKE MICHIGAN

STATION/POSITION TIME  TEMP    WIND        PRES    WAVE
                       AIR SEA DIR/SP/G            HT
                 (UTC) (F)     (DEG/KT/KT) (MB)    (FT)
BURNS HARBOR     0702   74     310/  5/  6 1017.6S
MICHIGAN CITY    0700   73     320/  8/  8   N/A
5NW MICH CITY    0700   74 71  330/  6/  6   N/A     1

$$

INZ004-005-014>016-021>024-310900-
NORTH CENTRAL INDIANA

CITY           SKY/WX    TMP DP  RH WIND       PRES   REMARKS
GOSHEN         CLOUDY    71  67  87 SW5       30.02F
SOUTH BEND     CLOUDY    71  70  96 CALM      30.03S

$$

INZ006>009-017-018-025>027-310900-
NORTHEAST INDIANA

CITY           SKY/WX    TMP DP  RH WIND       PRES   REMARKS
ANGOLA *+      CLEAR     70  63  78 CALM      30.02S
FORT WAYNE     CLOUDY    69  68  96 W3        30.02F

$$

INZ028-029-035-036-043>045-051>053-310900-
WEST CENTRAL INDIANA

CITY           SKY/WX    TMP DP  RH WIND       PRES   REMARKS
CRAWFORDSVL +  CLOUDY    67  67 100 CALM      30.05R FOG
GREENCASTLE +  MOCLDY    68  68 100 CALM      30.05S FOG
LAFAYETTE      CLOUDY    69  69 100 W3        30.02F
TERRE HAUTE    CLOUDY    70  68  93 CALM      30.04S

$$

INZ030>032-037>040-046>048-054>057-064-065-310900-
CENTRAL INDIANA

CITY           SKY/WX    TMP DP  RH WIND       PRES   REMARKS
INDIANAPOLIS   CLOUDY    71  70  96 W5        30.03S
-EAGLE CREEK   CLOUDY    72  69  90 CALM      30.02F
KOKOMO *+      CLOUDY    70  68  94 W3        30.03S
MT COMFORT *+  CLOUDY    70  68  94 CALM      30.04S
SHELBYVILLE    CLOUDY    72  69  90 CALM      30.02F FOG

$$

INZ033-034-041-042-049-050-058-059-310900-
EAST CENTRAL INDIANA

CITY           SKY/WX    TMP DP  RH WIND       PRES   REMARKS
MUNCIE         CLOUDY    70  68  93 W3        30.03F FOG

$$

INZ060-061-067>069-081>083-085>088-310900-
SOUTHWEST INDIANA

CITY           SKY/WX    TMP DP  RH WIND       PRES   REMARKS
EVANSVILLE     CLEAR     75  71  87 CALM      30.03F
HUNTINGBURG *+ CLEAR     73  70  88 CALM      30.03F

$$

INZ062-063-066-070>080-084-089>092-310900-
SOUTH CENTRAL AND SOUTHEAST INDIANA

CITY           SKY/WX    TMP DP  RH WIND       PRES   REMARKS
BLOOMINGTON    PTCLDY    70  68  93 CALM      30.04S
MADISON *+     MOCLDY    70  68  94 CALM      30.05F

$$





USA.gov is the U.S. government's official web portal to all federal, state and local government web resources and services.